Tracking 23762 objects as of 22-Oct-2021
HD Live streaming from Space Station
objects crossing your sky now

FLOCK 4V 16

Track FLOCK 4V 16 now!
10-day predictions
FLOCK 4V 16 is classified as:


NORAD ID: 46527
Int'l Code: 2020-061BD
Perigee: 518.8 km
Apogee: 528.9 km
Inclination: 97.4 °
Period: 95.0 minutes
Semi major axis: 6894 km
RCS: Unknown
Launch date: September 3, 2020
Source: United States (US)
Launch site: FRENCH GUIANA (FRGUI)
aabbcc
Your satellite tracking list
Your tracking list is empty




NASA's NSSDC Master Catalog

Two Line Element Set (TLE):
1 46527U 20061BD  21294.46168833  .00003893  00000-0  20372-3 0  9990
2 46527  97.4296   5.3871 0007324 225.6183 134.4451 15.16401677 58621
Source of the keplerian elements: AFSPC